Regional Weather Roundup
Issued by NWS Charleston, SC

Current Version | Previous Version | Graphics & Text | Print | Product List | Glossary On
Versions: 1 2 3 4 5 6 7 8 9 10 11 12 13 14 15 16 17 18 19 20 21 22 23 24 25 26 27 28 29 30 31 32 33 34 35 36 37 38 39 40 41 42 43 44 45 46 47 48 49 50
000 ASUS42 KCHS 250325 RWRCHS REGIONAL WEATHER ROUNDUP NATIONAL WEATHER SERVICE CHARLESTON SC 1000 PM EST SAT JAN 24 2015 NOTE: "FAIR" INDICATES FEW OR NO CLOUDS BELOW 12,000 FEET WITH NO SIGNIFICANT WEATHER AND/OR OBSTRUCTIONS TO VISIBILITY. NOT ALL STATIONS ARE QUALITY CONTROLLED BY THE NATIONAL WEATHER SERVICE. USE DATA WITH CAUTION...ESPECIALLY DEWPOINT OBSERVATIONS. SCZ027-030-031-034>040-042>050-250400- ...SOUTHEAST SOUTH CAROLINA... CITY SKY/WX TMP DP RH WIND PRES REMARKS N CHARLESTON CLEAR 45 33 63 W7 29.91R WATERFRONT PRK N/A 48 N/A N/A W7 N/A MOUNT PLEASANT LGT RAIN N/A N/A N/A W8 29.90R PINOPOLIS NOT AVBL MONCKS CORNER FAIR 43 34 70 SW5 29.89R SUMMERVILLE FAIR 43 36 75 SW3 29.92R BEAUFORT MCAS CLEAR 42 33 70 SW6 29.94R BEAUFORT ARPT FAIR 45 36 70 W8 29.93S HILTON HEAD IS CLEAR 46 34 61 SW7 29.96R WALTERBORO CLEAR 45 30 57 W7 29.93R ALLENDALE FAIR 45 32 61 CALM 29.93R ...SOUTHERN MIDLANDS AND PEE DEE... CITY SKY/WX TMP DP RH WIND PRES REMARKS GEORGETOWN NOT AVBL KINGSTREE NOT AVBL ORANGEBURG CLEAR 43 29 57 SW8 29.89R BARNWELL FAIR 43 32 65 SW7 29.92R AIKEN FAIR 41 30 65 W8 29.93R MANNING NOT AVBL COLUMBIA CLEAR 44 28 53 W6 29.87R SUMTER CLEAR 42 30 61 SW7 29.84R FLORENCE CLEAR 43 37 79 W7 29.83S MYRTLE BEACH CLEAR 46 39 76 W8 29.87R N MYRTLE BEACH CLEAR 47 41 80 SW9 29.84R $$ GAZ063-065-086>088-099>101-113>116-118-119-134>141-150-250400- ...SOUTHEAST GEORGIA... CITY SKY/WX TMP DP RH WIND PRES REMARKS SAVANNAH ARPT CLEAR 43 33 68 W7 29.95R HUNTER AAF CLEAR 42 36 79 W7 29.94R FORT STEWART CLEAR 44 35 72 W6 29.96R STATESBORO CLEAR 43 33 68 W5 29.95S SYLVANIA CLEAR 43 34 70 NW5 29.95R CLAXTON FAIR 41 36 81 W5 29.97R ...CSRA...CENTRAL AND FAR SOUTHEAST GEORGIA... CITY SKY/WX TMP DP RH WIND PRES REMARKS THOMSON CLEAR 43 32 66 W6 29.99R AUGUSTA-BUSH CLEAR 44 27 51 W12 29.92R AUGUSTA-DANIEL CLEAR 46 27 47 W9 29.92R SWAINSBORO FAIR 43 25 49 W5 29.97R VIDALIA CLEAR 45 32 61 W7 29.97R EASTMAN FAIR 43 34 69 W5 30.02R HAZLEHURST FAIR 43 37 78 W3 29.99R ALMA CLEAR 44 33 65 W6 29.99R WAYCROSS CLEAR 45 40 82 W3 30.00R JESUP FAIR 45 37 76 W3 29.99R BAXLEY FAIR 46 34 61 W7 29.99R BRUNSWICK CLEAR 46 37 71 W7 30.00R SAINT SIMONS CLEAR 47 38 71 W8 29.98S $$ SCZ027-028-034-036>038-045-046-048>050-GAZ119-141-250400- ...LAKE AND SUPPLEMENTAL COASTAL OBSERVATIONS... STATION/POSITION TIME TEMP WIND PRES WAVE SWELL AIR SEA DIR/SP/G HT/PER HT/PER/DIR (UTC) (F) (DEG/KT/KT) (MB) (FT/S) (FT/S/D) UPR LAKE MARION NOT AVBL WINYAH BAY 0300 47 250/ 6 1010.0S LAKE MURRAY 0300 45 270/ 10/ 15 1010.5R ACE BASIN NERRS NOT AVBL FORT PULASKI 0300 48 54 260/ 9/ 12 1014.5R SAPELO ISLAND 0300 48 250/ 7 1015.0S $$ ANZ835-935-AMZ111-154-330-350-352-354-370-450-454-472-250400- ...C-MAN AND BUOY OBSERVATIONS... STATION/POSITION TIME TEMP WIND PRES WAVE SWELL AIR SEA DIR/SP/G HT/PER HT/PER/DIR (UTC) (F) (DEG/KT/KT) (MB) (FT/S) (FT/S/D) BUOY 41004 0300 56 70 290/ 21/ 25 1011.1R 8/ 8 3/11 BUOY 41008 0300 53 55 280/ 19/ 23 1013.8S 3/ 4 2/150/ 7 FOLLY BEACH CMAN 0300 48 270/ 7/ 11 1013.3R CAPERS NEARSHORE 0200 52 220/ 16/ 17 N/A FRIPP NEARSHORE 0200 52 280/ 14/ 16 N/A STATION/POSITION TIME TEMP WIND PRES WAVE SWELL AIR SEA DIR/SP/G HT/PER HT/PER/DIR (UTC) (F) (DEG/KT/KT) (MB) (FT/S) (FT/S/D) 5E ST. MARYS GA 0300 58 N/A 2/ 3 FRYING PAN BUOY 0300 55 66 270/ 21/ 27 1010.5R 8/10 5/170/10 BUOY 41025 0300 52 71 290/ 23/ 27 1006.4R 9/10 5/170/10 CAPE LOOKOUT NC 0300 49 270/ 17/ 21 1008.4R BUOY 41002 0155 65 72 300/ 23/ 29 1008.6R 16/10 13/230/10 BUOY 41010 0300 66 77 300/ 19/ 25 1013.1S 10/ 8 ST AUGUSTINE FL 0300 48 290/ 7/ 9 1016.6R $$

USA.gov is the U.S. government's official web portal to all federal, state and local government web resources and services.